User: anonymous   Login
Location: Bothwell
(42.3833°S, 147.0000°E)
Time: 00:58:51
(UTC+10:00)
Language:

ITUPSAT 1 - Orbit

View from above orbital plane
View from above orbital plane
View from above satellite
View from above satellite

Ground track
Ground track

The orbit data is extracted from the following two-line orbital elements,

1 35935U 09051E   23271.63117068  .00001473  00000-0  33886-3 0  9993
2 35935  98.5067 145.5026 0009217  68.2510 291.9668 14.56904225744055
Epoch (UTC): 28 September 2023 15:08:53
Eccentricity: 0.0009217
inclination: 98.5067°
perigee height: 696 km
apogee height: 710 km
right ascension of ascending node: 145.5026°
argument of perigee: 68.2510°
revolutions per day: 14.56904225
mean anomaly at epoch: 291.9668°
orbit number at epoch: 74405

The dashed part of the orbit path shows where the satellite is in the earth's shadow,  

DLR